owner,sensor,date,latitude,longitude,vertical_datum,mass_concentration_of_oxygen_in_sea_water,qcFlag 
DISL,ioos:station:DISL:DISL:1,2010-06-01T00:00:00Z,30.2513,-88.0778,6.337,7.21,1111122 
DISL,ioos:station:DISL:DISL:1,2010-06-01T00:30:00Z,30.2513,-88.0778,6.295,7.47,1111122 
DISL,ioos:station:DISL:DISL:1,2010-06-01T01:00:00Z,30.2513,-88.0778,6.192,8.08,1111122 
DISL,ioos:station:DISL:DISL:1,2010-06-01T01:30:00Z,30.2513,-88.0778,6.055,8.18,1111122 
DISL,ioos:station:DISL:DISL:1,2010-06-01T02:00:00Z,30.2513,-88.0778,6.043,8.13,1111122 
DISL,ioos:station:DISL:DISL:1,2010-06-01T02:30:00Z,30.2513,-88.0778,6.016,8.1,1111122 
DISL,ioos:station:DISL:DISL:1,2010-06-01T03:00:00Z,30.2513,-88.0778,5.912,7.98,1111122 
DISL,ioos:station:DISL:DISL:1,2010-06-01T03:30:00Z,30.2513,-88.0778,5.865,7.7,1111122 
DISL,ioos:station:DISL:DISL:1,2010-06-01T04:00:00Z,30.2513,-88.0778,5.858,7.52,1111122 
DISL,ioos:station:DISL:DISL:1,2010-06-01T04:30:00Z,30.2513,-88.0778,5.785,7.49,1111122 
DISL,ioos:station:DISL:DISL:1,2010-06-01T05:00:00Z,30.2513,-88.0778,5.793,7.38,1111122 
DISL,ioos:station:DISL:DISL:1,2010-06-01T05:30:00Z,30.2513,-88.0778,5.794,7.3,1111122 
DISL,ioos:station:DISL:DISL:1,2010-06-01T06:00:00Z,30.2513,-88.0778,5.827,7.03,1111122 
DISL,ioos:station:DISL:DISL:1,2010-06-01T06:30:00Z,30.2513,-88.0778,5.821,6.75,1111122 
DISL,ioos:station:DISL:DISL:1,2010-06-01T07:00:00Z,30.2513,-88.0778,5.884,6.64,1111122 
DISL,ioos:station:DISL:DISL:1,2010-06-01T07:30:00Z,30.2513,-88.0778,5.868,6.79,1111122 
DISL,ioos:station:DISL:DISL:1,2010-06-01T08:00:00Z,30.2513,-88.0778,5.951,5.76,1111122 
DISL,ioos:station:DISL:DISL:1,2010-06-01T08:30:00Z,30.2513,-88.0778,6.015,6.08,1111122 
DISL,ioos:station:DISL:DISL:1,2010-06-01T09:00:00Z,30.2513,-88.0778,6.124,6.18,1111122 
DISL,ioos:station:DISL:DISL:1,2010-06-01T09:30:00Z,30.2513,-88.0778,6.208,6.04,1111122 
DISL,ioos:station:DISL:DISL:1,2010-06-01T10:00:00Z,30.2513,-88.0778,6.268,6.37,1111122 
DISL,ioos:station:DISL:DISL:1,2010-06-01T10:30:00Z,30.2513,-88.0778,6.346,6.46,1111122 
DISL,ioos:station:DISL:DISL:1,2010-06-01T11:00:00Z,30.2513,-88.0778,6.393,5.59,1111122 
DISL,ioos:station:DISL:DISL:1,2010-06-01T11:30:00Z,30.2513,-88.0778,6.486,5.26,1111122 
DISL,ioos:station:DISL:DISL:1,2010-06-01T12:00:00Z,30.2513,-88.0778,6.559,5.24,1111122 
DISL,ioos:station:DISL:DISL:1,2010-06-01T12:30:00Z,30.2513,-88.0778,6.501,5.58,1111122 
DISL,ioos:station:DISL:DISL:1,2010-06-01T13:00:00Z,30.2513,-88.0778,6.626,5.3,1111122 
DISL,ioos:station:DISL:DISL:1,2010-06-01T13:30:00Z,30.2513,-88.0778,6.721,5.55,1111122 
DISL,ioos:station:DISL:DISL:1,2010-06-01T14:00:00Z,30.2513,-88.0778,6.833,5.21,1111122 
DISL,ioos:station:DISL:DISL:1,2010-06-01T14:30:00Z,30.2513,-88.0778,6.927,5.09,1111122 
DISL,ioos:station:DISL:DISL:1,2010-06-01T15:00:00Z,30.2513,-88.0778,6.997,5.15,1111122 
DISL,ioos:station:DISL:DISL:1,2010-06-01T15:30:00Z,30.2513,-88.0778,7.15,5.38,1111122 
DISL,ioos:station:DISL:DISL:1,2010-06-01T16:00:00Z,30.2513,-88.0778,7.14,5.15,1111122 
DISL,ioos:station:DISL:DISL:1,2010-06-01T16:30:00Z,30.2513,-88.0778,7.2,5.45,1111122 
DISL,ioos:station:DISL:DISL:1,2010-06-01T17:00:00Z,30.2513,-88.0778,7.23,5.61,1111122 
DISL,ioos:station:DISL:DISL:1,2010-06-01T17:30:00Z,30.2513,-88.0778,7.24,5.84,1111122 
DISL,ioos:station:DISL:DISL:1,2010-06-01T18:00:00Z,30.2513,-88.0778,7.21,6.08,1111122 
DISL,ioos:station:DISL:DISL:1,2010-06-01T18:30:00Z,30.2513,-88.0778,7.24,6.62,1111122 
DISL,ioos:station:DISL:DISL:1,2010-06-01T19:00:00Z,30.2513,-88.0778,7.29,6.92,1111122 
DISL,ioos:station:DISL:DISL:1,2010-06-01T19:30:00Z,30.2513,-88.0778,7.2,7.21,1111122 
DISL,ioos:station:DISL:DISL:1,2010-06-01T20:00:00Z,30.2513,-88.0778,7.14,7.34,1111122 
DISL,ioos:station:DISL:DISL:1,2010-06-01T20:30:00Z,30.2513,-88.0778,7.1,7.61,1111122 
DISL,ioos:station:DISL:DISL:1,2010-06-01T21:00:00Z,30.2513,-88.0778,7.05,7.36,1111122 
DISL,ioos:station:DISL:DISL:1,2010-06-01T21:30:00Z,30.2513,-88.0778,6.923,7.07,1111122 
DISL,ioos:station:DISL:DISL:1,2010-06-01T22:00:00Z,30.2513,-88.0778,6.837,7.69,1111122 
DISL,ioos:station:DISL:DISL:1,2010-06-01T22:30:00Z,30.2513,-88.0778,6.749,7.24,1111122 
DISL,ioos:station:DISL:DISL:1,2010-06-01T23:00:00Z,30.2513,-88.0778,6.658,7.75,1111122 
DISL,ioos:station:DISL:DISL:1,2010-06-01T23:30:00Z,30.2513,-88.0778,6.566,7.62,1111122 
DISL,ioos:station:DISL:DISL:1,2010-06-02T00:00:00Z,30.2513,-88.0778,6.489,7.62,1111122 
DISL,ioos:station:DISL:DISL:1,2010-06-02T00:30:00Z,30.2513,-88.0778,6.423,7.77,1111122 
DISL,ioos:station:DISL:DISL:1,2010-06-02T01:00:00Z,30.2513,-88.0778,6.33,7.62,1111122 
DISL,ioos:station:DISL:DISL:1,2010-06-02T01:30:00Z,30.2513,-88.0778,6.232,7.37,1111122 
DISL,ioos:station:DISL:DISL:1,2010-06-02T02:00:00Z,30.2513,-88.0778,6.164,7.24,1111122 
DISL,ioos:station:DISL:DISL:1,2010-06-02T02:30:00Z,30.2513,-88.0778,6.09,7.3,1111122 
DISL,ioos:station:DISL:DISL:1,2010-06-02T03:00:00Z,30.2513,-88.0778,6.056,7.52,1111122 
DISL,ioos:station:DISL:DISL:1,2010-06-02T03:30:00Z,30.2513,-88.0778,5.978,7.79,1111122 
DISL,ioos:station:DISL:DISL:1,2010-06-02T04:00:00Z,30.2513,-88.0778,5.956,7.84,1111122 
DISL,ioos:station:DISL:DISL:1,2010-06-02T04:30:00Z,30.2513,-88.0778,5.904,7.79,1111122 
DISL,ioos:station:DISL:DISL:1,2010-06-02T05:00:00Z,30.2513,-88.0778,5.958,7.25,1111122 
DISL,ioos:station:DISL:DISL:1,2010-06-02T05:30:00Z,30.2513,-88.0778,5.889,7.25,1111122 
DISL,ioos:station:DISL:DISL:1,2010-06-02T06:00:00Z,30.2513,-88.0778,5.906,7.27,1111122 
DISL,ioos:station:DISL:DISL:1,2010-06-02T06:30:00Z,30.2513,-88.0778,5.914,7.23,1111122 
DISL,ioos:station:DISL:DISL:1,2010-06-02T07:00:00Z,30.2513,-88.0778,5.958,7.13,1111122 
DISL,ioos:station:DISL:DISL:1,2010-06-02T07:30:00Z,30.2513,-88.0778,5.976,6.6,1111122 
DISL,ioos:station:DISL:DISL:1,2010-06-02T08:00:00Z,30.2513,-88.0778,6.025,6.38,1111122 
DISL,ioos:station:DISL:DISL:1,2010-06-02T08:30:00Z,30.2513,-88.0778,6.092,6.33,1111122 
DISL,ioos:station:DISL:DISL:1,2010-06-02T09:00:00Z,30.2513,-88.0778,6.219,6.64,1111122 
DISL,ioos:station:DISL:DISL:1,2010-06-02T09:30:00Z,30.2513,-88.0778,6.194,6.56,1111122 
DISL,ioos:station:DISL:DISL:1,2010-06-02T10:00:00Z,30.2513,-88.0778,6.24,6.09,1111122 
DISL,ioos:station:DISL:DISL:1,2010-06-02T10:30:00Z,30.2513,-88.0778,6.371,5.8,1111122 
DISL,ioos:station:DISL:DISL:1,2010-06-02T11:00:00Z,30.2513,-88.0778,6.382,5.79,1111122 
DISL,ioos:station:DISL:DISL:1,2010-06-02T11:30:00Z,30.2513,-88.0778,6.425,5.64,1111122 
DISL,ioos:station:DISL:DISL:1,2010-06-02T12:00:00Z,30.2513,-88.0778,6.427,5.76,1111122 
DISL,ioos:station:DISL:DISL:1,2010-06-02T12:30:00Z,30.2513,-88.0778,6.589,4.71,1111122 
DISL,ioos:station:DISL:DISL:1,2010-06-02T13:00:00Z,30.2513,-88.0778,6.492,4.55,1111122 
DISL,ioos:station:DISL:DISL:1,2010-06-02T13:30:00Z,30.2513,-88.0778,6.549,4.8,1111122 
DISL,ioos:station:DISL:DISL:1,2010-06-02T14:00:00Z,30.2513,-88.0778,6.623,5.27,1111122 
DISL,ioos:station:DISL:DISL:1,2010-06-02T14:30:00Z,30.2513,-88.0778,6.684,5.49,1111122 
DISL,ioos:station:DISL:DISL:1,2010-06-02T15:00:00Z,30.2513,-88.0778,6.866,5.16,1111122 
DISL,ioos:station:DISL:DISL:1,2010-06-02T15:30:00Z,30.2513,-88.0778,6.841,5.27,1111122 
DISL,ioos:station:DISL:DISL:1,2010-06-02T16:00:00Z,30.2513,-88.0778,6.896,5.01,1111122 
DISL,ioos:station:DISL:DISL:1,2010-06-02T16:30:00Z,30.2513,-88.0778,6.885,5.28,1111122 
DISL,ioos:station:DISL:DISL:1,2010-06-02T17:00:00Z,30.2513,-88.0778,7.02,5.3,1111122 
DISL,ioos:station:DISL:DISL:1,2010-06-02T17:30:00Z,30.2513,-88.0778,7.04,5.04,1111122 
DISL,ioos:station:DISL:DISL:1,2010-06-02T18:00:00Z,30.2513,-88.0778,7.01,5.4,1111122 
DISL,ioos:station:DISL:DISL:1,2010-06-02T18:30:00Z,30.2513,-88.0778,7.01,5.19,1111122 
DISL,ioos:station:DISL:DISL:1,2010-06-02T19:00:00Z,30.2513,-88.0778,7.02,4.92,1111122 
DISL,ioos:station:DISL:DISL:1,2010-06-02T19:30:00Z,30.2513,-88.0778,7.02,5.88,1111122 
DISL,ioos:station:DISL:DISL:1,2010-06-02T20:00:00Z,30.2513,-88.0778,6.944,6.35,1111122 
DISL,ioos:station:DISL:DISL:1,2010-06-02T20:30:00Z,30.2513,-88.0778,6.898,6.57,1111122 
DISL,ioos:station:DISL:DISL:1,2010-06-02T21:00:00Z,30.2513,-88.0778,6.885,6.82,1111122 
DISL,ioos:station:DISL:DISL:1,2010-06-02T21:30:00Z,30.2513,-88.0778,6.832,7.23,1111122 
DISL,ioos:station:DISL:DISL:1,2010-06-02T22:00:00Z,30.2513,-88.0778,6.748,7.32,1111122 
DISL,ioos:station:DISL:DISL:1,2010-06-02T22:30:00Z,30.2513,-88.0778,6.72,7.25,1111122 
DISL,ioos:station:DISL:DISL:1,2010-06-02T23:00:00Z,30.2513,-88.0778,6.669,7.02,1111122 
DISL,ioos:station:DISL:DISL:1,2010-06-02T23:30:00Z,30.2513,-88.0778,6.632,7.25,1111122 
DISL,ioos:station:DISL:DISL:1,2010-06-03T00:00:00Z,30.2513,-88.0778,6.575,7.88,1111122 
DISL,ioos:station:DISL:DISL:1,2010-06-03T00:30:00Z,30.2513,-88.0778,6.518,7.84,1111122 
DISL,ioos:station:DISL:DISL:1,2010-06-03T01:00:00Z,30.2513,-88.0778,6.479,7.06,1111122 
DISL,ioos:station:DISL:DISL:1,2010-06-03T01:30:00Z,30.2513,-88.0778,6.381,6.41,1111122 
DISL,ioos:station:DISL:DISL:1,2010-06-03T02:00:00Z,30.2513,-88.0778,6.334,5.44,1111122 
DISL,ioos:station:DISL:DISL:1,2010-06-03T02:30:00Z,30.2513,-88.0778,6.291,5.92,1111122 
DISL,ioos:station:DISL:DISL:1,2010-06-03T03:00:00Z,30.2513,-88.0778,6.294,5.92,1111122 
DISL,ioos:station:DISL:DISL:1,2010-06-03T03:30:00Z,30.2513,-88.0778,6.363,5.83,1111122 
DISL,ioos:station:DISL:DISL:1,2010-06-03T04:00:00Z,30.2513,-88.0778,6.233,5.89,1111122 
DISL,ioos:station:DISL:DISL:1,2010-06-03T04:30:00Z,30.2513,-88.0778,6.159,5.52,1111122 
DISL,ioos:station:DISL:DISL:1,2010-06-03T05:00:00Z,30.2513,-88.0778,6.132,5.53,1111122 
DISL,ioos:station:DISL:DISL:1,2010-06-03T05:30:00Z,30.2513,-88.0778,6.083,5.29,1111122 
DISL,ioos:station:DISL:DISL:1,2010-06-03T06:00:00Z,30.2513,-88.0778,6.089,5.47,1111122 
DISL,ioos:station:DISL:DISL:1,2010-06-03T06:30:00Z,30.2513,-88.0778,6.099,5.04,1111122 
DISL,ioos:station:DISL:DISL:1,2010-06-03T07:00:00Z,30.2513,-88.0778,6.151,4.64,1111122 
DISL,ioos:station:DISL:DISL:1,2010-06-03T07:30:00Z,30.2513,-88.0778,6.154,5.51,1111122 
DISL,ioos:station:DISL:DISL:1,2010-06-03T08:00:00Z,30.2513,-88.0778,6.151,5.35,1111122 
DISL,ioos:station:DISL:DISL:1,2010-06-03T08:30:00Z,30.2513,-88.0778,6.272,4.8,1111122 
DISL,ioos:station:DISL:DISL:1,2010-06-03T09:00:00Z,30.2513,-88.0778,6.215,4.46,1111122 
DISL,ioos:station:DISL:DISL:1,2010-06-03T09:30:00Z,30.2513,-88.0778,6.345,4.4,1111122 
DISL,ioos:station:DISL:DISL:1,2010-06-03T10:00:00Z,30.2513,-88.0778,6.391,4.27,1111122 
DISL,ioos:station:DISL:DISL:1,2010-06-03T10:30:00Z,30.2513,-88.0778,6.462,4.67,1111122 
DISL,ioos:station:DISL:DISL:1,2010-06-03T11:00:00Z,30.2513,-88.0778,6.499,5.19,1111122 
DISL,ioos:station:DISL:DISL:1,2010-06-03T11:30:00Z,30.2513,-88.0778,6.622,5.11,1111122 
DISL,ioos:station:DISL:DISL:1,2010-06-03T12:00:00Z,30.2513,-88.0778,6.679,4.91,1111122 
DISL,ioos:station:DISL:DISL:1,2010-06-03T12:30:00Z,30.2513,-88.0778,6.642,5.07,1111122 
DISL,ioos:station:DISL:DISL:1,2010-06-03T13:00:00Z,30.2513,-88.0778,6.744,4.82,1111122 
DISL,ioos:station:DISL:DISL:1,2010-06-03T13:30:00Z,30.2513,-88.0778,6.83,5.24,1111122 
DISL,ioos:station:DISL:DISL:1,2010-06-03T14:00:00Z,30.2513,-88.0778,6.676,5.3,1111122 
DISL,ioos:station:DISL:DISL:1,2010-06-03T14:30:00Z,30.2513,-88.0778,6.816,5.0,1111122 
DISL,ioos:station:DISL:DISL:1,2010-06-03T15:00:00Z,30.2513,-88.0778,6.859,5.29,1111122 
DISL,ioos:station:DISL:DISL:1,2010-06-03T15:30:00Z,30.2513,-88.0778,6.839,5.2,1111122 
DISL,ioos:station:DISL:DISL:1,2010-06-03T16:00:00Z,30.2513,-88.0778,7.0,4.99,1111122 
DISL,ioos:station:DISL:DISL:1,2010-06-03T16:30:00Z,30.2513,-88.0778,6.94,5.83,1111122 
DISL,ioos:station:DISL:DISL:1,2010-06-03T17:00:00Z,30.2513,-88.0778,7.0,5.26,1111122 
DISL,ioos:station:DISL:DISL:1,2010-06-03T17:30:00Z,30.2513,-88.0778,7.05,5.65,1111122 
DISL,ioos:station:DISL:DISL:1,2010-06-03T18:00:00Z,30.2513,-88.0778,7.04,5.4,1111122 
DISL,ioos:station:DISL:DISL:1,2010-06-03T18:30:00Z,30.2513,-88.0778,6.907,5.18,1111122 
DISL,ioos:station:DISL:DISL:1,2010-06-03T19:00:00Z,30.2513,-88.0778,6.948,4.93,1111122 
DISL,ioos:station:DISL:DISL:1,2010-06-03T19:30:00Z,30.2513,-88.0778,6.912,5.32,1111122 
DISL,ioos:station:DISL:DISL:1,2010-06-03T20:00:00Z,30.2513,-88.0778,6.869,5.19,1111122 
DISL,ioos:station:DISL:DISL:1,2010-06-03T20:30:00Z,30.2513,-88.0778,6.888,7.48,1111122 
DISL,ioos:station:DISL:DISL:1,2010-06-03T21:00:00Z,30.2513,-88.0778,6.951,6.79,1111122 
DISL,ioos:station:DISL:DISL:1,2010-06-03T21:30:00Z,30.2513,-88.0778,6.873,7.25,1111122 
DISL,ioos:station:DISL:DISL:1,2010-06-03T22:00:00Z,30.2513,-88.0778,6.859,6.93,1111122 
DISL,ioos:station:DISL:DISL:1,2010-06-03T22:30:00Z,30.2513,-88.0778,6.843,6.9,1111122 
DISL,ioos:station:DISL:DISL:1,2010-06-03T23:00:00Z,30.2513,-88.0778,6.834,6.79,1111122 
DISL,ioos:station:DISL:DISL:1,2010-06-03T23:30:00Z,30.2513,-88.0778,6.791,6.49,1111122 
DISL,ioos:station:DISL:DISL:1,2010-06-04T00:00:00Z,30.2513,-88.0778,6.551,6.29,1111122 
DISL,ioos:station:DISL:DISL:1,2010-06-04T00:30:00Z,30.2513,-88.0778,6.701,6.2,1111122 
DISL,ioos:station:DISL:DISL:1,2010-06-04T01:00:00Z,30.2513,-88.0778,6.703,6.03,1111122 
DISL,ioos:station:DISL:DISL:1,2010-06-04T01:30:00Z,30.2513,-88.0778,6.572,5.87,1111122 
DISL,ioos:station:DISL:DISL:1,2010-06-04T02:00:00Z,30.2513,-88.0778,6.582,5.73,1111122 
DISL,ioos:station:DISL:DISL:1,2010-06-04T02:30:00Z,30.2513,-88.0778,6.618,5.74,1111122 
DISL,ioos:station:DISL:DISL:1,2010-06-04T03:00:00Z,30.2513,-88.0778,6.584,5.68,1111122 
DISL,ioos:station:DISL:DISL:1,2010-06-04T03:30:00Z,30.2513,-88.0778,6.532,5.64,1111122 
DISL,ioos:station:DISL:DISL:1,2010-06-04T04:00:00Z,30.2513,-88.0778,6.474,5.64,1111122 
DISL,ioos:station:DISL:DISL:1,2010-06-04T04:30:00Z,30.2513,-88.0778,6.491,5.8,1111122 
DISL,ioos:station:DISL:DISL:1,2010-06-04T05:00:00Z,30.2513,-88.0778,6.446,5.67,1111122 
DISL,ioos:station:DISL:DISL:1,2010-06-04T05:30:00Z,30.2513,-88.0778,6.476,5.83,1111122 
DISL,ioos:station:DISL:DISL:1,2010-06-04T06:00:00Z,30.2513,-88.0778,6.503,5.53,1111122 
DISL,ioos:station:DISL:DISL:1,2010-06-04T06:30:00Z,30.2513,-88.0778,6.475,5.35,1111122 
DISL,ioos:station:DISL:DISL:1,2010-06-04T07:00:00Z,30.2513,-88.0778,6.563,4.56,1111122 
DISL,ioos:station:DISL:DISL:1,2010-06-04T07:30:00Z,30.2513,-88.0778,6.591,5.21,1111122 
DISL,ioos:station:DISL:DISL:1,2010-06-04T08:00:00Z,30.2513,-88.0778,6.648,4.86,1111122 
DISL,ioos:station:DISL:DISL:1,2010-06-04T08:30:00Z,30.2513,-88.0778,6.709,5.36,1111122 
DISL,ioos:station:DISL:DISL:1,2010-06-04T09:00:00Z,30.2513,-88.0778,6.731,5.15,1111122 
DISL,ioos:station:DISL:DISL:1,2010-06-04T09:30:00Z,30.2513,-88.0778,6.753,5.28,1111122 
DISL,ioos:station:DISL:DISL:1,2010-06-04T10:00:00Z,30.2513,-88.0778,6.745,5.11,1111122 
DISL,ioos:station:DISL:DISL:1,2010-06-04T10:30:00Z,30.2513,-88.0778,6.778,5.06,1111122 
DISL,ioos:station:DISL:DISL:1,2010-06-04T11:00:00Z,30.2513,-88.0778,6.794,5.18,1111122 
DISL,ioos:station:DISL:DISL:1,2010-06-04T11:30:00Z,30.2513,-88.0778,6.81,4.9,1111122 
DISL,ioos:station:DISL:DISL:1,2010-06-04T12:00:00Z,30.2513,-88.0778,6.823,4.64,1111122 
DISL,ioos:station:DISL:DISL:1,2010-06-04T12:30:00Z,30.2513,-88.0778,6.82,4.81,1111122 
DISL,ioos:station:DISL:DISL:1,2010-06-04T13:00:00Z,30.2513,-88.0778,6.842,4.84,1111122 
DISL,ioos:station:DISL:DISL:1,2010-06-04T13:30:00Z,30.2513,-88.0778,6.934,5.34,1111122 
DISL,ioos:station:DISL:DISL:1,2010-06-04T14:00:00Z,30.2513,-88.0778,6.977,5.25,1111122 
DISL,ioos:station:DISL:DISL:1,2010-06-04T14:30:00Z,30.2513,-88.0778,6.994,4.96,1111122 
DISL,ioos:station:DISL:DISL:1,2010-06-04T15:00:00Z,30.2513,-88.0778,6.931,5.45,1111122 
DISL,ioos:station:DISL:DISL:1,2010-06-04T15:30:00Z,30.2513,-88.0778,6.901,5.52,1111122 
DISL,ioos:station:DISL:DISL:1,2010-06-04T16:00:00Z,30.2513,-88.0778,6.946,5.61,1111122 
DISL,ioos:station:DISL:DISL:1,2010-06-04T16:30:00Z,30.2513,-88.0778,6.957,5.69,1111122 
DISL,ioos:station:DISL:DISL:1,2010-06-04T17:00:00Z,30.2513,-88.0778,6.964,5.92,1111122 
DISL,ioos:station:DISL:DISL:1,2010-06-04T18:30:00Z,30.2513,-88.0778,6.963,7.66,1111122 
DISL,ioos:station:DISL:DISL:1,2010-06-04T19:00:00Z,30.2513,-88.0778,6.997,7.74,1111122 
DISL,ioos:station:DISL:DISL:1,2010-06-04T19:30:00Z,30.2513,-88.0778,6.976,7.32,1111122 
DISL,ioos:station:DISL:DISL:1,2010-06-04T20:00:00Z,30.2513,-88.0778,6.867,6.87,1111122 
DISL,ioos:station:DISL:DISL:1,2010-06-04T20:30:00Z,30.2513,-88.0778,6.844,6.98,1111122 
DISL,ioos:station:DISL:DISL:1,2010-06-04T21:00:00Z,30.2513,-88.0778,6.826,7.16,1111122 
DISL,ioos:station:DISL:DISL:1,2010-06-04T21:30:00Z,30.2513,-88.0778,6.862,7.55,1111122 
DISL,ioos:station:DISL:DISL:1,2010-06-04T22:00:00Z,30.2513,-88.0778,6.824,7.57,1111122 
DISL,ioos:station:DISL:DISL:1,2010-06-04T22:30:00Z,30.2513,-88.0778,6.758,7.31,1111122 
DISL,ioos:station:DISL:DISL:1,2010-06-04T23:00:00Z,30.2513,-88.0778,6.817,8.34,1111122 
DISL,ioos:station:DISL:DISL:1,2010-06-04T23:30:00Z,30.2513,-88.0778,6.736,8.63,1111122 
DISL,ioos:station:DISL:DISL:1,2010-06-05T00:00:00Z,30.2513,-88.0778,6.807,7.14,1111122 
DISL,ioos:station:DISL:DISL:1,2010-06-05T00:30:00Z,30.2513,-88.0778,6.647,6.7,1111122 
DISL,ioos:station:DISL:DISL:1,2010-06-05T01:00:00Z,30.2513,-88.0778,6.628,7.02,1111122 
DISL,ioos:station:DISL:DISL:1,2010-06-05T01:30:00Z,30.2513,-88.0778,6.634,6.38,1111122 
DISL,ioos:station:DISL:DISL:1,2010-06-05T02:00:00Z,30.2513,-88.0778,6.56,6.31,1111122 
DISL,ioos:station:DISL:DISL:1,2010-06-05T02:30:00Z,30.2513,-88.0778,6.537,5.99,1111122 
DISL,ioos:station:DISL:DISL:1,2010-06-05T03:00:00Z,30.2513,-88.0778,6.542,5.91,1111122 
DISL,ioos:station:DISL:DISL:1,2010-06-05T03:30:00Z,30.2513,-88.0778,6.551,5.6,1111122 
DISL,ioos:station:DISL:DISL:1,2010-06-05T04:00:00Z,30.2513,-88.0778,6.57,5.07,1111122 
DISL,ioos:station:DISL:DISL:1,2010-06-05T04:30:00Z,30.2513,-88.0778,6.598,4.62,1111122 
DISL,ioos:station:DISL:DISL:1,2010-06-05T05:00:00Z,30.2513,-88.0778,6.692,5.88,1111122 
DISL,ioos:station:DISL:DISL:1,2010-06-05T05:30:00Z,30.2513,-88.0778,6.688,5.81,1111122 
DISL,ioos:station:DISL:DISL:1,2010-06-05T06:00:00Z,30.2513,-88.0778,6.716,5.89,1111122 
DISL,ioos:station:DISL:DISL:1,2010-06-05T06:30:00Z,30.2513,-88.0778,6.787,5.41,1111122 
DISL,ioos:station:DISL:DISL:1,2010-06-05T07:00:00Z,30.2513,-88.0778,6.823,5.08,1111122 
DISL,ioos:station:DISL:DISL:1,2010-06-05T07:30:00Z,30.2513,-88.0778,6.823,5.35,1111122 
DISL,ioos:station:DISL:DISL:1,2010-06-05T08:00:00Z,30.2513,-88.0778,6.795,5.92,1111122 
DISL,ioos:station:DISL:DISL:1,2010-06-05T08:30:00Z,30.2513,-88.0778,6.889,5.91,1111122 
DISL,ioos:station:DISL:DISL:1,2010-06-05T09:00:00Z,30.2513,-88.0778,6.961,5.72,1111122 
DISL,ioos:station:DISL:DISL:1,2010-06-05T09:30:00Z,30.2513,-88.0778,7.05,5.18,1111122 
DISL,ioos:station:DISL:DISL:1,2010-06-05T10:00:00Z,30.2513,-88.0778,7.03,5.73,1111122 
DISL,ioos:station:DISL:DISL:1,2010-06-05T10:30:00Z,30.2513,-88.0778,7.01,5.7,1111122 
DISL,ioos:station:DISL:DISL:1,2010-06-05T11:00:00Z,30.2513,-88.0778,7.08,5.63,1111122 
DISL,ioos:station:DISL:DISL:1,2010-06-05T11:30:00Z,30.2513,-88.0778,7.17,5.26,1111122 
DISL,ioos:station:DISL:DISL:1,2010-06-05T12:00:00Z,30.2513,-88.0778,7.14,5.7,1111122 
DISL,ioos:station:DISL:DISL:1,2010-06-05T12:30:00Z,30.2513,-88.0778,7.16,5.53,1111122 
DISL,ioos:station:DISL:DISL:1,2010-06-05T13:00:00Z,30.2513,-88.0778,7.11,5.58,1111122 
DISL,ioos:station:DISL:DISL:1,2010-06-05T13:30:00Z,30.2513,-88.0778,7.14,5.16,1111122 
DISL,ioos:station:DISL:DISL:1,2010-06-05T14:00:00Z,30.2513,-88.0778,7.13,5.44,1111122 
DISL,ioos:station:DISL:DISL:1,2010-06-05T14:30:00Z,30.2513,-88.0778,7.1,5.65,1111122 
DISL,ioos:station:DISL:DISL:1,2010-06-05T15:00:00Z,30.2513,-88.0778,7.07,5.9,1111122 
DISL,ioos:station:DISL:DISL:1,2010-06-05T15:30:00Z,30.2513,-88.0778,7.1,6.03,1111122 
DISL,ioos:station:DISL:DISL:1,2010-06-05T16:00:00Z,30.2513,-88.0778,7.12,6.18,1111122 
DISL,ioos:station:DISL:DISL:1,2010-06-05T16:30:00Z,30.2513,-88.0778,7.04,6.17,1111122 
DISL,ioos:station:DISL:DISL:1,2010-06-05T17:00:00Z,30.2513,-88.0778,7.03,6.14,1111122 
DISL,ioos:station:DISL:DISL:1,2010-06-05T17:30:00Z,30.2513,-88.0778,6.99,5.46,1111122 
DISL,ioos:station:DISL:DISL:1,2010-06-05T18:00:00Z,30.2513,-88.0778,6.955,5.83,1111122 
DISL,ioos:station:DISL:DISL:1,2010-06-05T18:30:00Z,30.2513,-88.0778,6.922,6.72,1111122 
DISL,ioos:station:DISL:DISL:1,2010-06-05T19:00:00Z,30.2513,-88.0778,6.871,7.14,1111122 
DISL,ioos:station:DISL:DISL:1,2010-06-05T19:30:00Z,30.2513,-88.0778,6.784,7.03,1111122 
DISL,ioos:station:DISL:DISL:1,2010-06-05T20:00:00Z,30.2513,-88.0778,6.814,7.22,1111122 
DISL,ioos:station:DISL:DISL:1,2010-06-05T20:30:00Z,30.2513,-88.0778,7.05,6.85,1111122 
DISL,ioos:station:DISL:DISL:1,2010-06-05T21:00:00Z,30.2513,-88.0778,6.647,7.09,1111122 
DISL,ioos:station:DISL:DISL:1,2010-06-05T21:30:00Z,30.2513,-88.0778,6.646,7.24,1111122 
DISL,ioos:station:DISL:DISL:1,2010-06-05T22:00:00Z,30.2513,-88.0778,6.602,7.23,1111122 
DISL,ioos:station:DISL:DISL:1,2010-06-05T22:30:00Z,30.2513,-88.0778,6.632,7.1,1111122 
DISL,ioos:station:DISL:DISL:1,2010-06-05T23:00:00Z,30.2513,-88.0778,6.637,7.47,1111122 
DISL,ioos:station:DISL:DISL:1,2010-06-05T23:30:00Z,30.2513,-88.0778,6.656,7.02,1111122 
DISL,ioos:station:DISL:DISL:1,2010-06-06T00:00:00Z,30.2513,-88.0778,6.736,7.25,1111122 
DISL,ioos:station:DISL:DISL:1,2010-06-06T00:30:00Z,30.2513,-88.0778,6.824,7.21,1111122 
DISL,ioos:station:DISL:DISL:1,2010-06-06T01:00:00Z,30.2513,-88.0778,6.602,7.06,1111122 
DISL,ioos:station:DISL:DISL:1,2010-06-06T01:30:00Z,30.2513,-88.0778,6.508,7.25,1111122 
DISL,ioos:station:DISL:DISL:1,2010-06-06T02:00:00Z,30.2513,-88.0778,6.663,7.13,1111122 
DISL,ioos:station:DISL:DISL:1,2010-06-06T02:30:00Z,30.2513,-88.0778,6.591,7.33,1111122 
DISL,ioos:station:DISL:DISL:1,2010-06-06T03:00:00Z,30.2513,-88.0778,6.491,7.34,1111122 
DISL,ioos:station:DISL:DISL:1,2010-06-06T03:30:00Z,30.2513,-88.0778,6.385,7.31,1111122 
DISL,ioos:station:DISL:DISL:1,2010-06-06T04:00:00Z,30.2513,-88.0778,6.405,7.23,1111122 
DISL,ioos:station:DISL:DISL:1,2010-06-06T04:30:00Z,30.2513,-88.0778,6.456,7.1,1111122 
DISL,ioos:station:DISL:DISL:1,2010-06-06T05:00:00Z,30.2513,-88.0778,6.504,7.0,1111122 
DISL,ioos:station:DISL:DISL:1,2010-06-06T05:30:00Z,30.2513,-88.0778,6.624,5.95,1111122 
DISL,ioos:station:DISL:DISL:1,2010-06-06T06:00:00Z,30.2513,-88.0778,6.548,5.41,1111122 
DISL,ioos:station:DISL:DISL:1,2010-06-06T06:30:00Z,30.2513,-88.0778,6.579,5.5,1111122 
DISL,ioos:station:DISL:DISL:1,2010-06-06T07:00:00Z,30.2513,-88.0778,6.779,5.05,1111122 
DISL,ioos:station:DISL:DISL:1,2010-06-06T07:30:00Z,30.2513,-88.0778,6.752,5.49,1111122 
DISL,ioos:station:DISL:DISL:1,2010-06-06T08:00:00Z,30.2513,-88.0778,6.743,6.07,1111122 
DISL,ioos:station:DISL:DISL:1,2010-06-06T08:30:00Z,30.2513,-88.0778,6.805,5.92,1111122 
DISL,ioos:station:DISL:DISL:1,2010-06-06T09:00:00Z,30.2513,-88.0778,6.915,6.34,1111122 
DISL,ioos:station:DISL:DISL:1,2010-06-06T09:30:00Z,30.2513,-88.0778,6.952,6.11,1111122 
DISL,ioos:station:DISL:DISL:1,2010-06-06T10:00:00Z,30.2513,-88.0778,7.08,5.93,1111122 
DISL,ioos:station:DISL:DISL:1,2010-06-06T10:30:00Z,30.2513,-88.0778,7.07,5.84,1111122 
DISL,ioos:station:DISL:DISL:1,2010-06-06T11:00:00Z,30.2513,-88.0778,7.09,5.75,1111122 
DISL,ioos:station:DISL:DISL:1,2010-06-06T11:30:00Z,30.2513,-88.0778,7.06,5.65,1111122 
DISL,ioos:station:DISL:DISL:1,2010-06-06T12:00:00Z,30.2513,-88.0778,7.14,5.56,1111122 
DISL,ioos:station:DISL:DISL:1,2010-06-06T12:30:00Z,30.2513,-88.0778,7.07,5.21,1111122 
DISL,ioos:station:DISL:DISL:1,2010-06-06T13:00:00Z,30.2513,-88.0778,7.06,5.31,1111122 
DISL,ioos:station:DISL:DISL:1,2010-06-06T13:30:00Z,30.2513,-88.0778,7.09,4.9,1111122 
DISL,ioos:station:DISL:DISL:1,2010-06-06T14:00:00Z,30.2513,-88.0778,7.1,4.9,1111122 
DISL,ioos:station:DISL:DISL:1,2010-06-06T14:30:00Z,30.2513,-88.0778,7.05,5.2,1111122 
DISL,ioos:station:DISL:DISL:1,2010-06-06T15:00:00Z,30.2513,-88.0778,7.01,5.35,1111122 
DISL,ioos:station:DISL:DISL:1,2010-06-06T15:30:00Z,30.2513,-88.0778,6.914,5.71,1111122 
DISL,ioos:station:DISL:DISL:1,2010-06-06T16:00:00Z,30.2513,-88.0778,6.883,6.08,1111122 
DISL,ioos:station:DISL:DISL:1,2010-06-06T16:30:00Z,30.2513,-88.0778,6.809,6.24,1111122 